Theta_e
296 297 297 297 297 298 298 298 298 297 297 298 297 297 296 296 296 295 294 294 294 294 294 294 294 293 293 293 293 292 292 292 292 292 292 291 291 292 291 292 293 293
295 296 296 296 296 297 297 297 297 297 297 297 297 297 297 297 296 295 294 293 294 293 294 294 293 293 293 292 292 291 291 291 290 292 290 290 290 290 291 291 292 293
294 294 295 295 295 296 296 297 296 296 296 297 297 297 297 296 295 295 294 293 293 293 293 293 293 293 292 292 291 290 290 290 290 290 290 290 290 289 290 291 291 292
292 292 292 293 294 294 295 296 296 295 295 295 295 296 295 296 295 294 294 292 293 292 292 292 292 292 292 291 291 290 290 290 290 290 289 289 290 290 290 290 290 291
291 291 292 292 292 293 294 294 294 294 294 294 295 295 294 294 294 293 293 292 292 292 292 291 291 291 291 290 290 289 289 289 289 290 289 288 289 289 289 289 288 289
291 291 291 291 291 291 291 292 293 293 293 293 294 294 294 294 293 292 292 291 291 291 291 291 290 290 290 290 289 289 289 288 288 289 288 287 288 289 288 288 288 287
290 290 290 290 290 290 290 291 291 292 292 293 293 292 293 292 292 292 292 291 291 291 290 290 290 289 289 289 289 288 288 288 288 287 287 287 288 287 287 287 287 287
290 290 290 290 289 290 290 290 290 291 292 292 291 292 292 292 292 292 291 291 290 290 290 290 290 290 289 289 288 288 287 288 287 287 286 286 287 286 286 286 286 286
289 289 289 288 288 289 289 290 290 290 291 291 290 291 291 291 291 291 291 290 290 289 290 289 289 289 289 288 288 287 287 287 287 287 286 285 285 286 286 285 284 285
288 288 288 287 287 287 288 289 289 290 290 290 290 290 290 290 290 291 291 290 289 289 289 289 288 288 288 287 287 287 287 286 286 286 286 285 285 285 285 284 284 284
287 287 286 286 286 287 286 287 288 288 289 289 289 289 289 289 289 290 289 289 288 288 288 288 288 288 287 287 287 287 286 286 286 285 285 285 285 285 285 284 284 284
286 286 286 286 286 286 286 287 287 288 288 289 289 289 289 289 289 289 288 288 288 288 288 287 287 287 287 286 286 286 286 286 286 286 285 285 285 285 285 284 284 284
286 286 286 285 285 285 286 286 287 287 288 288 289 288 288 288 289 288 288 287 288 288 288 288 287 287 286 285 285 285 285 284 285 285 284 284 284 284 284 284 284 284
286 287 286 286 286 285 286 286 286 286 287 287 288 288 288 288 288 288 288 288 287 287 288 288 288 288 288 287 286 285 285 284 284 284 284 284 283 284 284 284 284 284
286 287 287 286 285 285 285 285 286 286 286 286 287 287 288 288 288 287 287 287 287 287 286 287 287 287 287 287 286 285 284 284 284 284 283 283 283 283 283 283 284 284
286 286 286 285 284 284 284 285 285 286 286 286 286 287 287 287 287 287 287 287 286 286 286 286 286 287 287 287 287 285 284 284 284 284 284 283 283 283 283 283 284 284
285 285 285 284 284 283 283 284 284 284 285 285 285 286 286 286 287 286 286 286 286 286 286 286 286 287 287 289 289 289 287 285 285 284 284 284 283 283 283 283 283 283
284 284 283 282 282 282 282 283 284 284 284 284 284 284 285 285 285 286 286 286 286 286 286 286 286 287 288 289 289 289 288 286 285 284 284 284 283 283 283 283 283 282
283 282 281 280 280 280 280 281 283 283 283 284 283 284 284 284 284 285 285 286 286 286 286 286 286 287 289 289 289 289 289 288 285 285 284 284 284 283 283 283 283 282
281 280 279 279 279 278 279 279 282 282 283 283 283 284 284 284 284 284 285 285 285 285 286 286 286 287 288 289 289 289 289 289 286 285 284 284 284 283 283 283 283 282
279 279 278 278 277 277 277 278 280 282 282 282 282 282 282 282 283 283 283 284 285 285 285 285 286 287 288 288 289 289 289 289 287 286 285 284 284 284 283 283 283 283
278 277 277 276 276 275 275 276 278 281 281 281 281 282 282 283 283 283 283 283 284 284 284 284 286 287 287 288 288 289 289 287 286 286 285 285 284 284 283 283 283 283
277 276 275 275 274 274 274 275 276 278 279 280 279 280 280 281 281 281 282 283 283 283 283 284 285 286 286 287 287 288 288 287 286 286 286 285 284 285 283 282 282 282
276 275 274 274 273 273 273 273 274 276 277 278 278 278 278 279 280 281 281 282 282 282 283 283 284 285 286 286 286 287 287 286 286 286 285 285 285 285 284 282 282 282
275 274 273 272 272 272 272 272 272 274 276 277 277 277 277 279 279 280 280 281 282 282 282 282 283 284 285 285 286 286 286 286 286 285 285 285 285 284 284 283 281 282
274 273 272 272 271 271 271 271 272 273 274 275 274 275 275 276 277 278 279 279 280 281 281 282 282 283 284 285 285 286 286 285 285 284 284 284 284 284 282 282 281 281
Wind_Speed
7 7 7 7 7 7 7 7 6 7 8 8 8 8 9 8 9 11 13 12 12 11 11 10 9 10 8 9 9 9 8 9 8 8 9 10 10 10 10 11 10 9
9 8 7 7 8 7 7 7 7 8 9 9 8 8 7 7 9 9 11 12 11 12 11 10 10 11 10 10 10 11 9 9 10 6 9 12 11 10 10 11 12 9
10 9 9 9 9 10 9 8 7 8 8 9 8 8 7 6 7 8 10 11 11 11 12 11 11 12 11 11 10 11 10 11 12 10 11 12 11 11 11 10 10 11
12 11 9 9 10 11 10 9 8 7 7 7 7 6 6 4 6 8 9 11 11 11 12 12 12 12 11 12 11 11 12 11 12 11 12 10 11 11 10 10 9 9
15 13 11 10 9 10 10 9 10 9 9 8 7 6 7 7 8 9 9 10 11 12 11 12 13 13 12 12 13 11 11 11 11 11 11 12 11 10 9 9 11 11
11 11 12 11 10 10 9 10 11 10 10 9 9 7 7 8 8 9 10 10 10 11 12 12 13 13 13 13 13 13 12 12 12 13 13 13 11 10 8 9 11 12
11 10 11 9 11 11 10 10 10 10 10 9 8 8 8 8 9 9 10 10 11 11 12 12 13 13 12 12 13 14 14 14 13 13 14 12 11 12 11 11 13 13
13 11 12 11 11 10 11 12 11 11 10 9 10 10 9 9 10 9 9 10 10 12 12 12 12 13 13 12 14 14 15 10 12 13 14 14 12 12 13 10 11 12
12 12 12 12 13 11 12 12 12 12 11 11 10 9 9 9 10 10 9 9 10 10 11 12 13 13 12 13 14 15 15 13 12 13 14 14 14 14 12 9 8 9
12 11 13 13 12 10 12 13 11 11 11 11 11 9 9 9 9 11 10 9 9 10 11 11 11 12 13 13 15 15 15 14 13 13 12 13 15 14 12 11 13 11
11 11 12 12 12 11 13 11 11 10 10 12 11 10 9 9 8 9 10 9 8 9 9 11 11 12 13 14 14 14 15 14 13 14 13 13 13 13 15 13 12 14
10 10 11 12 11 11 11 11 10 10 11 10 10 12 12 10 10 8 7 11 10 9 9 9 8 9 12 13 13 13 13 14 14 13 14 14 14 11 10 9 13 12
10 10 10 9 10 10 9 9 11 11 11 11 10 10 11 11 11 10 8 7 10 10 11 11 12 12 11 9 10 11 12 13 13 12 11 10 11 15 17 13 8 8
8 8 9 10 10 10 10 9 8 9 11 11 10 11 10 10 11 12 10 9 8 10 10 9 11 13 14 14 13 13 11 12 12 10 11 10 10 11 12 16 12 10
9 8 7 9 10 10 11 12 12 10 9 8 10 10 9 9 10 10 11 10 8 8 11 12 12 11 10 10 10 11 11 10 12 10 10 12 12 13 11 11 10 10
11 9 9 9 10 11 12 12 12 12 11 11 9 9 9 9 9 9 10 11 11 10 9 9 11 12 14 19 18 11 13 13 14 14 13 12 13 14 15 16 15 13
10 10 10 10 10 10 9 10 12 11 11 11 10 8 10 10 10 10 9 8 10 12 13 11 9 10 18 17 19 22 16 15 14 14 14 14 12 14 15 15 14 14
11 11 10 10 10 9 10 9 9 10 10 10 10 11 9 8 10 10 10 10 9 11 11 12 11 15 18 17 19 21 20 13 12 13 13 11 12 13 13 13 13 12
11 11 12 11 10 10 11 11 10 9 9 10 10 10 9 9 11 11 11 10 10 12 12 12 12 15 17 18 19 21 22 19 14 14 14 13 12 12 14 14 12 11
10 9 11 12 12 12 12 12 12 11 10 10 10 10 9 10 11 10 10 10 10 11 12 12 13 14 16 18 19 21 23 20 15 16 15 15 13 13 13 15 15 11
9 9 10 11 12 13 13 13 13 12 11 10 9 10 10 10 10 11 12 11 10 10 10 12 11 15 15 17 18 21 23 21 15 15 15 15 13 13 14 15 15 13
9 10 10 10 11 12 13 14 14 13 13 11 11 10 9 9 10 9 12 14 12 12 11 13 12 16 16 17 19 21 24 16 14 15 16 16 16 13 12 13 13 12
10 9 10 11 11 12 12 13 14 15 14 11 11 12 12 10 10 11 10 11 14 13 12 13 13 13 15 18 19 22 19 14 14 12 13 17 16 15 11 12 11 11
9 9 10 11 11 12 13 13 14 13 13 12 12 13 14 13 12 11 11 11 13 14 11 12 13 15 17 18 19 21 19 14 13 14 14 12 12 11 10 10 13 21
9 9 10 12 12 13 12 13 14 14 13 12 12 12 14 13 12 12 12 11 11 13 17 16 14 15 16 19 21 21 18 13 14 15 14 12 12 10 9 10 10 16
9 10 10 10 12 13 13 13 13 13 13 12 12 12 13 14 14 13 15 13 11 12 13 12 13 13 14 20 20 21 23 15 12 16 18 16 13 10 8 8 9 10
Wind_Direction
305 298 293 288 282 275 270 266 255 250 245 238 233 229 221 216 200 196 199 202 205 207 210 211 206 208 208 204 203 205 208 208 210 204 200 193 204 194 194 194 200 201
320 310 300 293 287 282 274 267 264 257 255 248 242 242 234 216 205 198 197 200 202 205 206 208 208 211 210 210 206 207 209 205 208 199 200 200 206 199 202 195 200 199
341 333 321 308 298 292 285 277 265 259 255 255 249 241 240 218 212 206 205 204 208 209 208 208 207 207 208 210 206 207 210 205 208 202 205 204 204 204 204 195 201 195
358 350 334 317 307 299 295 287 273 264 257 251 241 233 229 219 219 219 213 207 212 210 209 208 209 207 205 208 208 214 215 212 208 198 202 208 208 206 199 194 196 193
0 356 347 332 317 307 298 286 280 273 263 256 254 236 231 228 220 223 220 216 214 217 212 210 209 209 206 207 206 212 213 217 210 203 202 210 210 203 201 190 196 197
11 5 357 346 333 320 310 301 291 282 274 269 259 254 238 228 225 219 217 215 214 215 215 211 209 209 206 209 207 212 212 212 211 203 209 211 208 201 197 195 196 200
9 8 5 357 350 342 325 313 303 292 283 272 270 258 250 237 229 224 218 215 213 213 215 214 211 210 207 208 211 214 214 211 207 200 205 210 207 203 201 199 204 204
6 8 4 359 355 352 346 336 322 313 301 287 273 265 251 245 241 233 225 219 217 217 213 216 216 214 211 209 214 215 216 211 205 196 200 205 204 205 199 198 202 202
359 1 360 4 4 359 353 345 338 325 317 305 294 282 267 254 250 242 231 221 220 217 216 217 216 215 213 213 217 217 217 213 206 200 200 199 203 205 194 185 192 204
358 357 358 359 359 354 351 347 337 331 322 312 303 289 279 268 251 252 246 231 226 222 219 217 212 214 216 215 216 217 219 220 213 211 207 204 203 198 186 184 198 201
354 356 356 356 353 348 344 340 339 335 327 316 310 296 278 271 260 244 248 241 230 223 219 220 218 215 218 219 218 219 220 219 214 210 209 212 211 202 194 184 189 201
350 350 348 346 344 343 340 338 333 333 331 326 319 311 300 280 268 256 234 243 239 231 223 221 215 216 220 222 221 219 219 221 220 214 212 211 211 212 205 194 193 193
346 345 342 337 335 333 333 334 335 332 330 329 326 316 306 298 286 264 248 244 245 241 236 232 229 227 225 219 217 218 219 219 222 217 209 208 214 215 213 217 219 201
341 337 336 334 331 329 326 325 323 331 334 328 325 319 313 303 292 285 268 248 241 245 241 236 234 234 233 230 226 225 220 219 219 215 211 211 216 214 214 217 210 207
330 329 331 337 332 330 330 330 330 325 322 319 318 316 314 306 294 285 279 267 251 237 242 246 246 239 233 223 216 218 213 211 217 219 210 217 218 218 211 208 211 207
329 327 332 334 335 335 332 329 328 328 327 324 317 311 311 309 302 288 277 274 269 256 244 235 239 245 241 237 233 229 229 233 233 233 228 222 218 218 218 217 218 214
326 327 329 329 327 327 324 325 325 324 322 319 318 317 315 312 311 302 286 267 264 267 262 253 239 237 241 235 231 227 227 232 231 232 231 229 221 214 216 213 214 211
326 326 327 325 326 323 321 313 310 310 312 312 315 319 317 315 307 295 295 289 275 266 257 254 252 248 241 236 230 226 221 223 225 230 227 227 224 216 218 214 210 206
322 325 325 324 326 325 319 312 305 306 308 314 314 311 309 305 309 302 290 281 275 277 271 261 256 254 248 236 230 227 223 217 229 228 228 230 225 220 218 218 209 195
316 320 319 319 320 320 319 312 308 303 305 307 305 307 308 303 303 297 296 292 280 275 272 270 267 266 251 243 235 226 225 221 227 229 230 231 225 218 219 220 213 192
311 314 314 315 318 319 318 312 306 303 304 304 303 301 302 300 301 299 300 295 287 278 275 271 266 266 260 247 242 233 228 224 228 229 231 233 229 222 222 221 219 206
307 308 308 310 311 313 313 311 309 304 304 304 300 295 288 288 288 286 290 296 292 288 280 275 269 267 261 252 246 242 236 228 231 231 232 234 233 226 218 219 218 203
301 303 303 304 305 305 304 304 305 304 303 304 299 295 290 287 282 280 281 284 288 288 279 274 275 268 260 256 253 249 243 237 233 231 230 233 233 230 213 210 203 190
296 298 297 299 300 296 298 301 299 295 293 296 294 294 291 285 281 281 275 272 278 283 274 277 277 274 269 262 255 251 243 241 237 237 231 225 228 218 210 209 209 209
290 289 291 292 291 290 291 291 292 290 287 290 289 289 286 288 285 280 279 274 270 274 279 275 273 274 266 261 255 250 244 239 242 241 238 229 223 220 206 213 203 211
288 287 279 281 284 288 290 287 286 285 284 286 288 288 289 287 284 279 280 275 269 271 271 266 267 268 263 258 254 249 244 239 237 243 240 238 229 222 207 205 202 196